When you browse on this site, cookies collect data to enhance your experience and personalize the content and advertising you see.
Visit our Privacy Policy to learn more. By continuing to use the site, you agree to this use of cookies and data.
  • In Latvia
  • List of Countries
  • For 7 days
  • Water Temperature
  • Weather Map
  • Weather Widgets
  • user-avatar
    Login

    Hourly Weather San Juan

    Today, 23 September, Monday

    Time Temperature Precipitation Wind Pressure Humidity
    00:00 +17°C° 0 mm 4 mps 707 mmHg 34%
    01:00 +16°C° 0 mm 3 mps 706 mmHg 35%
    02:00 +14°C° 0 mm 3 mps 706 mmHg 38%
    03:00 +14°C° 0 mm 2 mps 705 mmHg 42%
    04:00 +13°C° 0 mm 1 mps 705 mmHg 45%
    05:00 +15°C° 0 mm 1 mps 706 mmHg 40%
    06:00 +16°C° 0 mm 1 mps 706 mmHg 36%
    07:00 +19°C° 0 mm 2 mps 707 mmHg 27%
    08:00 +21°C° 0 mm 3 mps 707 mmHg 24%
    09:00 +22°C° 0 mm 4 mps 708 mmHg 21%
    10:00 +25°C° 0 mm 5 mps 708 mmHg 18%
    11:00 +26°C° 0 mm 6 mps 708 mmHg 17%
    12:00 +28°C° 0 mm 7 mps 708 mmHg 15%
    13:00 +29°C° 0 mm 8 mps 708 mmHg 14%
    14:00 +29°C° 0 mm 8 mps 708 mmHg 14%
    15:00 +28°C° 0 mm 8 mps 708 mmHg 14%
    16:00 +28°C° 0 mm 9 mps 708 mmHg 14%
    17:00 +26°C° 0 mm 7 mps 709 mmHg 18%
    18:00 +23°C° 0 mm 6 mps 709 mmHg 21%
    19:00 +21°C° 0 mm 5 mps 710 mmHg 24%
    20:00 +21°C° 0 mm 4 mps 711 mmHg 26%
    21:00 +20°C° 0 mm 3 mps 711 mmHg 28%
    22:00 +19°C° 0 mm 3 mps 711 mmHg 30%
    23:00 +18°C° 0 mm 3 mps 711 mmHg 32%

    Tomorrow, 24 September, Tuesday

    Time Temperature Precipitation Wind Pressure Humidity
    00:00 +18°C° 0 mm 2 mps 711 mmHg 34%
    01:00 +17°C° 0 mm 2 mps 711 mmHg 36%
    02:00 +16°C° 0 mm 2 mps 711 mmHg 37%
    03:00 +16°C° 0 mm 2 mps 711 mmHg 38%
    04:00 +16°C° 0 mm 2 mps 711 mmHg 40%
    05:00 +18°C° 0 mm 2 mps 712 mmHg 36%
    06:00 +19°C° 0 mm 2 mps 712 mmHg 32%
    07:00 +22°C° 0 mm 1 mps 713 mmHg 28%
    08:00 +24°C° 0 mm 2 mps 713 mmHg 26%
    09:00 +25°C° 0 mm 2 mps 713 mmHg 23%
    10:00 +27°C° 0 mm 3 mps 713 mmHg 21%
    11:00 +28°C° 0 mm 3 mps 713 mmHg 20%
    12:00 +29°C° 0 mm 3 mps 712 mmHg 19%
    13:00 +29°C° 0 mm 3 mps 712 mmHg 17%
    14:00 +30°C° 0 mm 3 mps 711 mmHg 17%
    15:00 +30°C° 0 mm 3 mps 711 mmHg 17%
    16:00 +30°C° 0 mm 4 mps 711 mmHg 17%
    17:00 +27°C° 0 mm 3 mps 711 mmHg 21%
    18:00 +24°C° 0 mm 2 mps 711 mmHg 26%
    19:00 +21°C° 0 mm 1 mps 711 mmHg 30%
    20:00 +21°C° 0 mm 1 mps 711 mmHg 31%
    21:00 +21°C° 0 mm 1 mps 711 mmHg 32%
    22:00 +20°C° 0 mm 1 mps 712 mmHg 33%
    23:00 +19°C° 0 mm 1 mps 711 mmHg 36%

    Day after tomorrow, 25 September, Wednesday

    Time Temperature Precipitation Wind Pressure Humidity
    00:00 +19°C° 0 mm 1 mps 711 mmHg 39%
    01:00 +18°C° 0 mm 1 mps 711 mmHg 42%
    02:00 +18°C° 0 mm 1 mps 711 mmHg 41%
    03:00 +18°C° 0 mm 1 mps 711 mmHg 40%
    04:00 +18°C° 0 mm 1 mps 711 mmHg 39%
    05:00 +19°C° 0 mm 2 mps 711 mmHg 33%
    06:00 +22°C° 0 mm 3 mps 712 mmHg 28%
    07:00 +25°C° 0 mm 3 mps 712 mmHg 22%
    08:00 +27°C° 0 mm 4 mps 712 mmHg 19%
    09:00 +29°C° 0 mm 5 mps 712 mmHg 17%
    10:00 +32°C° 0 mm 6 mps 711 mmHg 14%
    11:00 +34°C° 0 mm 6 mps 710 mmHg 13%
    12:00 +35°C° 0 mm 7 mps 710 mmHg 11%
    13:00 +36°C° 0 mm 7 mps 709 mmHg 10%
    14:00 +36°C° 0 mm 7 mps 708 mmHg 10%
    15:00 +36°C° 0 mm 7 mps 707 mmHg 10%
    16:00 +35°C° 0 mm 6 mps 707 mmHg 10%
    17:00 +32°C° 0 mm 5 mps 707 mmHg 14%
    18:00 +28°C° 0 mm 4 mps 706 mmHg 18%
    19:00 +25°C° 0 mm 2 mps 706 mmHg 22%
    20:00 +25°C° 0 mm 3 mps 706 mmHg 23%
    21:00 +23°C° 0 mm 4 mps 707 mmHg 23%
    22:00 +23°C° 0 mm 4 mps 707 mmHg 24%
    23:00 +22°C° 0 mm 4 mps 706 mmHg 27%

    26 September, Thursday

    Time Temperature Precipitation Wind Pressure Humidity
    00:00 +21°C° 0 mm 3 mps 706 mmHg 29%
    01:00 +21°C° 0 mm 3 mps 706 mmHg 32%
    02:00 +20°C° 0 mm 3 mps 706 mmHg 35%
    03:00 +19°C° 0 mm 2 mps 706 mmHg 37%
    04:00 +18°C° 0 mm 2 mps 705 mmHg 40%
    05:00 +20°C° 0 mm 2 mps 706 mmHg 36%
    06:00 +23°C° 0 mm 2 mps 706 mmHg 32%
    07:00 +24°C° 0 mm 1 mps 707 mmHg 28%
    08:00 +26°C° 0 mm 1 mps 707 mmHg 25%
    09:00 +28°C° 0 mm 1 mps 707 mmHg 23%
    10:00 +30°C° 0 mm 1 mps 707 mmHg 20%
    11:00 +31°C° 0 mm 2 mps 706 mmHg 18%
    12:00 +32°C° 0 mm 2 mps 706 mmHg 17%
    13:00 +34°C° 0 mm 3 mps 705 mmHg 15%
    14:00 +34°C° 0 mm 3 mps 705 mmHg 15%
    15:00 +34°C° 0 mm 3 mps 704 mmHg 15%
    16:00 +34°C° 0 mm 3 mps 703 mmHg 15%
    17:00 +32°C° 0 mm 4 mps 703 mmHg 18%
    18:00 +29°C° 0 mm 5 mps 703 mmHg 22%
    19:00 +27°C° 0 mm 5 mps 703 mmHg 25%
    20:00 +26°C° 0 mm 6 mps 703 mmHg 26%
    21:00 +24°C° 0 mm 6 mps 703 mmHg 27%
    22:00 +23°C° 0 mm 7 mps 703 mmHg 28%
    23:00 +22°C° 0 mm 6 mps 702 mmHg 31%

    27 September, Friday

    Time Temperature Precipitation Wind Pressure Humidity
    00:00 +21°C° 0 mm 6 mps 702 mmHg 34%
    01:00 +20°C° 0 mm 6 mps 702 mmHg 37%
    02:00 +19°C° 0 mm 5 mps 702 mmHg 40%
    03:00 +18°C° 0 mm 3 mps 702 mmHg 43%
    04:00 +17°C° 0 mm 2 mps 702 mmHg 47%
    05:00 +18°C° 0 mm 2 mps 702 mmHg 43%
    06:00 +20°C° 0 mm 2 mps 703 mmHg 39%
    07:00 +21°C° 0 mm 2 mps 704 mmHg 35%
    08:00 +24°C° 0 mm 2 mps 704 mmHg 32%
    09:00 +26°C° 0 mm 2 mps 704 mmHg 28%
    10:00 +28°C° 0 mm 2 mps 704 mmHg 24%
    11:00 +30°C° 0 mm 3 mps 704 mmHg 21%
    12:00 +31°C° 0 mm 3 mps 704 mmHg 18%
    13:00 +34°C° 0 mm 4 mps 704 mmHg 16%
    14:00 +34°C° 0 mm 5 mps 704 mmHg 15%
    15:00 +34°C° 0 mm 5 mps 703 mmHg 14%
    16:00 +34°C° 0 mm 6 mps 703 mmHg 14%
    17:00 +30°C° 0 mm 5 mps 704 mmHg 17%
    18:00 +28°C° 0 mm 4 mps 704 mmHg 20%
    19:00 +26°C° 0 mm 3 mps 705 mmHg 23%
    20:00 +25°C° 0 mm 3 mps 705 mmHg 25%
    21:00 +24°C° 0 mm 3 mps 705 mmHg 27%
    22:00 +22°C° 0 mm 3 mps 705 mmHg 30%
    23:00 +21°C° 0 mm 2 mps 705 mmHg 33%

    28 September, Saturday

    Time Temperature Precipitation Wind Pressure Humidity
    00:00 +20°C° 0 mm 2 mps 705 mmHg 36%
    01:00 +20°C° 0 mm 1 mps 705 mmHg 40%
    02:00 +19°C° 0 mm 1 mps 705 mmHg 43%
    03:00 +16°C° 0 mm 0 mps 705 mmHg 47%
    04:00 +16°C° 0 mm 0 mps 705 mmHg 51%
    05:00 +18°C° 0 mm 0 mps 705 mmHg 43%
    06:00 +21°C° 0 mm 0 mps 706 mmHg 35%
    07:00 +26°C° 0 mm 1 mps 706 mmHg 27%
    08:00 +27°C° 0 mm 1 mps 706 mmHg 24%
    09:00 +29°C° 0 mm 2 mps 706 mmHg 21%
    10:00 +31°C° 0 mm 3 mps 706 mmHg 18%
    11:00 +34°C° 0 mm 3 mps 705 mmHg 16%
    12:00 +35°C° 0 mm 3 mps 704 mmHg 14%
    13:00 +36°C° 0 mm 4 mps 704 mmHg 12%
    14:00 +36°C° 0 mm 4 mps 703 mmHg 11%
    15:00 +37°C° 0 mm 3 mps 703 mmHg 11%
    16:00 +37°C° 0 mm 3 mps 702 mmHg 10%
    17:00 +33°C° 0 mm 3 mps 702 mmHg 16%
    18:00 +29°C° 0 mm 3 mps 702 mmHg 22%
    19:00 +26°C° 0 mm 3 mps 702 mmHg 28%
    20:00 +26°C° 0 mm 3 mps 702 mmHg 28%
    21:00 +26°C° 0 mm 4 mps 702 mmHg 28%
    22:00 +26°C° 0 mm 5 mps 702 mmHg 28%
    23:00 +25°C° 0 mm 4 mps 702 mmHg 30%
    Show more